Date String (YYYY-MM-DD hh:mm:ss) UTC,Instrument flags,Ambient pressure (hPa),Sample flow (lpm),Bypass flow (lpm),Sample temperature (°C),Ambient temperature (°C),ASC tube jacket temperature (°C),LED temperature (°C),Box temperature (°C),Sample RH (%),Span deviation,Mass concentration (μg/m³),Mass concentration (μg/m³),Mass concentration (μg/m³)
DateTimeUTC,F1_M11,P_M11,Q1_M11,Q2_M11,T1_M11,T2_M11,T3_M11,T4_M11,T5_M11,U1_M11,ZSPAN_M11,X0_M11,X2_M11,X1_M11
2022-07-16 21:00:00,,0830.8,4.99,0.00,30.7,27.5,00.0,38.9,31.7,32.4,0000.0,0008.59,0004.53,0003.97
2022-07-16 21:01:00,,0830.8,5.01,0.00,30.6,27.0,00.0,38.9,31.6,32.5,0000.0,0008.56,0004.53,0003.97
2022-07-16 21:02:00,,0830.7,4.99,0.00,30.5,26.9,00.0,38.9,31.5,32.3,0000.0,0008.60,0004.55,0003.97
2022-07-16 21:03:00,,0830.6,5.00,0.00,30.4,27.0,00.0,38.9,31.4,32.5,0000.0,0008.57,0004.54,0003.96
2022-07-16 21:04:00,,0830.6,5.00,0.00,30.3,27.2,00.0,38.8,31.4,32.7,0000.0,0008.09,0004.53,0003.96
2022-07-16 21:05:00,,0830.6,5.00,0.00,30.3,27.4,00.0,38.8,31.4,32.5,0000.0,0007.89,0004.51,0003.96
2022-07-16 21:06:00,,0830.5,4.99,0.00,30.2,27.6,00.0,38.8,31.5,32.8,0000.0,0007.89,0004.48,0003.95
2022-07-16 21:07:00,,0830.5,5.00,0.00,30.2,27.8,00.0,38.8,31.5,33.0,0000.0,0007.93,0004.47,0003.95
2022-07-16 21:08:00,,0830.5,5.01,0.00,30.2,28.0,00.0,38.8,31.6,32.6,0000.0,0007.88,0004.47,0003.96
2022-07-16 21:09:00,,0830.6,4.99,0.00,30.2,28.2,00.0,38.8,31.7,32.7,0000.0,0007.70,0004.44,0003.96
2022-07-16 21:10:00,,0830.7,5.01,0.00,30.2,28.3,00.0,38.8,31.7,32.6,0000.0,0007.72,0004.44,0003.97
2022-07-16 21:11:00,,0830.6,4.99,0.00,30.2,28.4,00.0,38.8,31.7,32.4,0000.0,0007.77,0004.46,0003.97
2022-07-16 21:12:00,,0830.6,5.01,0.00,30.3,28.2,00.0,38.8,31.7,32.0,0000.0,0007.85,0004.49,0003.98
2022-07-16 21:13:00,,0830.6,5.00,0.00,30.2,27.5,00.0,38.7,31.7,32.2,0000.0,0007.90,0004.50,0003.99
2022-07-16 21:14:00,,0830.6,5.00,0.00,30.2,27.1,00.0,38.6,31.5,32.6,0000.0,0008.02,0004.53,0003.99
2022-07-16 21:15:00,,0830.5,5.00,0.00,30.1,27.0,00.0,38.6,31.4,32.3,0000.0,0008.08,0004.56,0004.00
2022-07-16 21:16:00,,0830.4,4.99,0.00,30.0,27.1,00.0,38.6,31.3,32.5,0000.0,0008.06,0004.56,0004.01
2022-07-16 21:17:00,,0830.4,5.00,0.00,29.9,27.3,00.0,38.6,31.3,32.5,0000.0,0008.04,0004.55,0004.01
2022-07-16 21:18:00,,0830.4,5.00,0.00,29.9,27.5,00.0,38.6,31.4,32.4,0000.0,0007.95,0004.55,0004.01
2022-07-16 21:19:00,,0830.3,5.00,0.00,29.9,27.7,00.0,38.6,31.4,32.3,0000.0,0007.92,0004.54,0004.02
2022-07-16 21:20:00,,0830.2,4.99,0.00,29.9,27.9,00.0,38.6,31.4,32.3,0000.0,0007.82,0004.54,0004.03
2022-07-16 21:21:00,,0830.3,5.00,0.00,29.9,28.0,00.0,38.6,31.5,31.4,0000.0,0007.65,0004.53,0004.03
2022-07-16 21:22:00,,0830.2,5.01,0.00,29.9,28.2,00.0,38.6,31.5,31.7,0000.0,0007.66,0004.54,0004.04
2022-07-16 21:23:00,,0830.3,4.99,0.00,29.9,28.3,00.0,38.6,31.6,31.5,0000.0,0007.69,0004.55,0004.05
2022-07-16 21:24:00,,0830.3,4.99,0.00,30.0,28.2,00.0,38.6,31.7,30.7,0000.0,0007.66,0004.55,0004.06
2022-07-16 21:25:00,,0830.2,5.00,0.00,29.9,27.5,00.0,38.5,31.6,30.6,0000.0,0007.63,0004.56,0004.08
2022-07-16 21:26:00,,0830.2,5.01,0.00,29.9,27.1,00.0,38.4,31.5,30.7,0000.0,0007.75,0004.58,0004.08
2022-07-16 21:27:00,,0830.1,5.00,0.00,29.8,26.9,00.0,38.4,31.3,30.4,0000.0,0007.92,0004.64,0004.09
2022-07-16 21:28:00,,0830.1,4.99,0.00,29.7,27.0,00.0,38.4,31.2,31.0,0000.0,0008.03,0004.65,0004.10
2022-07-16 21:29:00,,0830.1,5.00,0.00,29.7,27.2,00.0,38.4,31.2,30.8,0000.0,0008.27,0004.69,0004.11
2022-07-16 21:30:00,,0830.1,5.00,0.00,29.7,27.4,00.0,38.4,31.2,30.5,0000.0,0008.38,0004.72,0004.12
2022-07-16 21:31:00,,0830.0,5.00,0.00,29.7,27.6,00.0,38.4,31.3,30.0,0000.0,0008.44,0004.73,0004.12
2022-07-16 21:32:00,,0830.1,5.00,0.00,29.7,27.8,00.0,38.4,31.3,30.8,0000.0,0008.49,0004.75,0004.11
2022-07-16 21:33:00,,0830.1,5.00,0.00,29.7,28.0,00.0,38.4,31.4,30.5,0000.0,0008.60,0004.78,0004.11
2022-07-16 21:34:00,,0830.1,5.00,0.00,29.7,28.1,00.0,38.4,31.4,29.9,0000.0,0008.52,0004.77,0004.11
2022-07-16 21:35:00,,0830.1,5.00,0.00,29.7,28.3,00.0,38.4,31.5,29.3,0000.0,0008.64,0004.76,0004.11
2022-07-16 21:36:00,,0830.0,5.00,0.00,29.8,28.3,00.0,38.4,31.6,29.2,0000.0,0008.94,0004.76,0004.10
2022-07-16 21:37:00,,0830.0,5.00,0.00,29.8,27.8,00.0,38.3,31.5,28.7,0000.0,0009.01,0004.72,0004.10
2022-07-16 21:38:00,,0829.9,5.01,0.00,29.7,27.2,00.0,38.3,31.4,28.4,0000.0,0008.93,0004.64,0004.09
2022-07-16 21:39:00,,0830.0,4.99,0.00,29.7,27.0,00.0,38.3,31.3,28.8,0000.0,0008.95,0004.65,0004.08
2022-07-16 21:40:00,,0829.9,5.00,0.00,29.6,27.0,00.0,38.3,31.2,28.1,0000.0,0008.79,0004.67,0004.09
2022-07-16 21:41:00,,0829.9,5.00,0.00,29.5,27.2,00.0,38.3,31.1,28.5,0000.0,0008.90,0004.72,0004.09
2022-07-16 21:42:00,,0829.8,5.00,0.00,29.5,27.4,00.0,38.3,31.2,27.7,0000.0,0008.90,0004.72,0004.09
2022-07-16 21:43:00,,0829.8,4.98,0.00,29.5,27.6,00.0,38.3,31.3,28.0,0000.0,0008.81,0004.71,0004.08
2022-07-16 21:44:00,,0829.9,5.00,0.00,29.5,27.8,00.0,38.3,31.3,29.5,0000.0,0008.68,0004.70,0004.09
2022-07-16 21:45:00,,0829.8,5.00,0.00,29.6,28.0,00.0,38.3,31.4,29.4,0000.0,0008.65,0004.69,0004.08
2022-07-16 21:46:00,,0829.9,5.01,0.00,29.6,28.2,00.0,38.3,31.4,28.5,0000.0,0008.65,0004.69,0004.07
2022-07-16 21:47:00,,0829.9,4.99,0.00,29.6,28.3,00.0,38.3,31.5,27.3,0000.0,0008.13,0004.63,0004.05
2022-07-16 21:48:00,,0829.9,5.00,0.00,29.7,28.4,00.0,38.3,31.6,27.7,0000.0,0007.95,0004.62,0004.04
2022-07-16 21:49:00,,0829.9,5.00,0.00,29.7,28.1,00.0,38.3,31.6,27.8,0000.0,0007.87,0004.64,0004.05
2022-07-16 21:50:00,,0829.9,4.99,0.00,29.7,27.4,00.0,38.2,31.5,28.3,0000.0,0007.80,0004.66,0004.06
2022-07-16 21:51:00,,0829.8,5.00,0.00,29.6,27.2,00.0,38.2,31.4,28.2,0000.0,0007.65,0004.62,0004.07
2022-07-16 21:52:00,,0829.8,5.00,0.00,29.6,27.2,00.0,38.2,31.2,28.0,0000.0,0007.57,0004.57,0004.08
2022-07-16 21:53:00,,0829.8,5.00,0.00,29.5,27.3,00.0,38.2,31.2,27.1,0000.0,0007.81,0004.57,0004.09
2022-07-16 21:54:00,,0829.8,5.01,0.00,29.5,27.5,00.0,38.2,31.2,26.3,0000.0,0007.94,0004.61,0004.11
2022-07-16 21:55:00,,0829.8,5.00,0.00,29.5,27.7,00.0,38.2,31.3,26.6,0000.0,0008.06,0004.64,0004.12
2022-07-16 21:56:00,,0829.8,4.99,0.00,29.5,27.9,00.0,38.2,31.3,26.5,0000.0,0008.26,0004.70,0004.14
2022-07-16 21:57:00,,0829.8,5.01,0.00,29.5,28.0,00.0,38.3,31.4,26.0,0000.0,0008.26,0004.72,0004.17
2022-07-16 21:58:00,,0829.8,4.99,0.00,29.6,28.2,00.0,38.3,31.5,26.8,0000.0,0008.35,0004.77,0004.21
2022-07-16 21:59:00,,0829.8,5.00,0.00,29.6,28.4,00.0,38.3,31.5,27.6,0000.0,0008.40,0004.81,0004.24
